Home   Weather   Monaco   Past weeks

Flag for Monaco Past Weather in Monaco, Monaco — Yesterday and Last 2 Weeks

Now
77 °F

Partly sunny.


Feels Like: 78 °F
Forecast: 73 / 84 °F
Wind: 5 mph from Southwest

Location: Nice Airport

Current Time: Jun 24, 2017 at 9:09:26 pm

Latest Report: Jun 24, 2017 at 8:30 pm


Visibility: N/A

Pressure: 29.95 "Hg

Humidity: 83%

Dew Point: 72 °F

Location of MonacoLocation

Past Weather in Monaco — Graph

°F

Monaco Temperature Yesterday

Maximum temperature yesterday: 81 °F (at 1:00 pm)
Minimum temperature yesterday: 73 °F (at 3:00 am)
Average temperature yesterday: 77 °F

High & Low Weather Summary for the Past Weeks

 TemperatureHumidityPressure
High88 °F (Jun 17, 6:30 pm)89% (Jun 12, 11:30 pm)30.18 "Hg (Jun 12, 11:30 pm)
Low66 °F (Jun 10, 4:30 am)33% (Jun 17, 8:30 pm)29.89 "Hg (Jun 17, 6:30 pm)
Average76 °F67%30.02 "Hg
* Reported Jun 9 8:00 pm — Jun 24 8:00 pm, Monaco. Weather by CustomWeather, © 2017

Note: Actual official high and low records may vary slightly from our data, if they occured in-between our weather recording intervals... More about our weather records

Advertising

Monaco Weather History for the Previous 24 Hours

Scroll right to see more
 ConditionsComfort  
Time TempWeatherWind HumidityBarometerVisibility
8:00 pm
Sat, Jun 24
79 °FPartly sunny.5 mph79%29.95 "HgN/A
7:30 pm79 °FPartly sunny.3 mph79%29.95 "HgN/A
7:06 pm79 °FPartly sunny.2 mph79%29.95 "HgN/A
6:34 pm79 °FPartly sunny.2 mph79%29.98 "HgN/A
6:00 pm79 °FBroken clouds.2 mph79%29.98 "HgN/A
5:30 pm79 °FBroken clouds.2 mph79%29.98 "HgN/A
5:00 pm79 °FScattered clouds.2 mph74%29.98 "HgN/A
4:30 pm79 °FScattered clouds.5 mph79%30.01 "HgN/A
4:00 pm81 °FScattered clouds.6 mph74%29.98 "HgN/A
3:30 pm81 °FScattered clouds.6 mph74%30.01 "HgN/A
3:00 pm81 °FPartly sunny.7 mph74%30.01 "HgN/A
2:30 pm81 °FPartly sunny.6 mph74%30.01 "HgN/A
2:00 pm81 °FPartly sunny.6 mph74%30.01 "HgN/A
1:30 pm81 °FPartly sunny.6 mph74%30.01 "HgN/A
1:00 pm81 °FPartly sunny.6 mph74%30.01 "HgN/A
12:30 pm81 °FPartly sunny.6 mph74%30.01 "HgN/A
12:00 pm79 °FPartly sunny.6 mph79%30.01 "HgN/A
11:30 am79 °FPartly sunny.5 mph79%30.04 "HgN/A
11:00 am79 °FPartly sunny.3 mph74%30.04 "HgN/A
10:30 am81 °FPartly sunny.6 mph70%30.04 "HgN/A
10:00 am79 °FPartly sunny.6 mph74%30.04 "HgN/A
9:30 am79 °FPartly sunny.2 mph74%30.04 "HgN/A
9:00 am77 °FPartly sunny.3 mph79%30.04 "HgN/A
8:00 am77 °FPartly sunny.6 mph83%30.04 "HgN/A
7:30 am77 °FPartly sunny.5 mph83%30.04 "HgN/A
7:00 am77 °FPartly sunny.7 mph83%30.04 "HgN/A
6:30 am77 °FPartly sunny.6 mph79%30.01 "HgN/A
6:00 am77 °FPartly sunny.7 mph79%30.01 "HgN/A
5:30 am77 °FPassing clouds.10 mph79%30.01 "HgN/A
5:00 am77 °FPassing clouds.10 mph79%30.01 "HgN/A
4:30 am77 °FOvercast.9 mph83%30.01 "HgN/A
4:00 am77 °FOvercast.8 mph79%30.01 "HgN/A
3:30 am77 °FOvercast.7 mph83%30.01 "HgN/A
3:00 am77 °FOvercast.5 mph83%30.04 "HgN/A
2:30 am77 °FOvercast.5 mph83%30.04 "HgN/A
2:00 am77 °FPassing clouds.6 mph83%30.04 "HgN/A
1:30 am77 °FPartly cloudy.5 mph83%30.04 "HgN/A
1:00 am77 °FPartly cloudy.6 mph79%30.04 "HgN/A
12:30 am77 °FPartly cloudy.6 mph79%30.04 "HgN/A
12:00 am77 °FPartly cloudy.6 mph83%30.04 "HgN/A
11:30 pm
Fri, Jun 23
77 °FPartly cloudy.5 mph83%30.04 "HgN/A
11:00 pm77 °FPartly cloudy.5 mph83%30.04 "HgN/A
10:30 pm77 °FPassing clouds.3 mph83%30.04 "HgN/A
10:00 pm77 °FPassing clouds.1 mph83%30.04 "HgN/A
9:30 pm77 °FPassing clouds.1 mph83%30.01 "HgN/A
9:00 pm77 °FBroken clouds.No wind79%30.01 "HgN/A
Weather by CustomWeather, © 2017

See weather overviewHow to use our weather pages